EW5165 Weather Reports


time (UTC)temp
C
wind
direction
speed
KPH
gust
KPH
rain 1hr
cm
rain 24hr
cm
rain mn
cm
humidity
%
barometer
mb
20260503213503 17 27 6.4 16.1 0.00 0.00 0.00 48 1015.9
20260503212002 17 19 3.2 11.3 0.00 0.00 0.00 47 1016.2
20260503211002 17 3 3.2 12.9 0.00 0.00 0.00 49 1016.3
20260503210503 17 13 4.8 11.3 0.00 0.00 0.00 48 1016.3
20260503205502 17 8 4.8 16.1 0.00 0.00 0.00 47 1016.2
20260503205003 17 350 3.2 9.7 0.00 0.00 0.00 47 1016.2
20260503204503 17 9 1.6 9.7 0.00 0.00 0.00 48 1016.3
20260503204003 17 25 4.8 12.9 0.00 0.00 0.00 49 1016.4
20260503203003 17 12 4.8 16.1 0.00 0.00 0.00 48 1016.6
20260503202503 17 356 3.2 16.1 0.00 0.00 0.00 48 1016.7
20260503202003 17 4 3.2 9.7 0.00 0.00 0.00 49 1016.7
20260503201503 17 22 3.2 11.3 0.00 0.00 0.00 48 1016.8
20260503201003 17 20 4.8 16.1 0.00 0.00 0.00 50 1016.8
20260503200503 17 358 4.8 16.1 0.00 0.00 0.00 48 1016.8
20260503200003 17 355 4.8 16.1 0.00 0.00 0.00 46 1017.0
20260503195502 17 24 4.8 16.1 0.00 0.00 0.00 46 1017.1
20260503195003 17 16 3.2 12.9 0.00 0.00 0.00 47 1017.1
20260503194503 17 20 3.2 11.3 0.00 0.00 0.00 49 1017.1
20260503194003 17 17 4.8 11.3 0.00 0.00 0.00 49 1017.2
20260503193503 17 15 3.2 12.9 0.00 0.00 0.00 47 1017.3
20260503193002 17 28 3.2 12.9 0.00 0.00 0.00 48 1017.4
20260503192503 17 92 1.6 9.7 0.00 0.00 0.00 48 1017.5
20260503191503 17 36 4.8 11.3 0.00 0.00 0.00 50 1017.6
20260503191003 17 38 3.2 11.3 0.00 0.00 0.00 51 1017.6
20260503190503 16 36 3.2 9.7 0.00 0.00 0.00 51 1017.7
20260503190003 16 49 3.2 9.7 0.00 0.00 0.00 50 1017.7
20260503185503 16 82 1.6 9.7 0.00 0.00 0.00 52 1017.9
20260503185003 16 8 1.6 9.7 0.00 0.00 0.00 53 1017.9
20260503184503 16 1 1.6 4.8 0.00 0.00 0.00 48 1017.9
20260503184003 16 3 1.6 4.8 0.00 0.00 0.00 50 1017.9
20260503183003 17 23 3.2 16.1 0.00 0.00 0.00 48 1018.0
20260503182503 16 150 3.2 11.3 0.00 0.00 0.00 48 1018.0
20260503182003 16 152 3.2 11.3 0.00 0.00 0.00 47 1018.1
20260503181504 16 143 1.6 6.4 0.00 0.00 0.00 50 1018.2
20260503181003 16 214 1.6 4.8 0.00 0.00 0.00 49 1018.2
20260503180503 16 209 1.6 4.8 0.00 0.00 0.00 47 1018.2
20260503180004 16 58 1.6 11.3 0.00 0.00 0.00 45 1018.3
20260503175502 17 16 1.6 11.3 0.00 0.00 0.00 45 1018.4
20260503175003 17 116 1.6 4.8 0.00 0.00 0.00 46 1018.4
20260503174003 17 35 3.2 9.7 0.00 0.00 0.00 48 1018.6
20260503173003 16 359 1.6 6.4 0.00 0.00 0.00 47 1018.5
20260503172503 16 350 1.6 6.4 0.00 0.00 0.00 49 1018.6
20260503172003 15 179 1.6 9.7 0.00 0.00 0.00 50 1018.8
20260503171502 15 182 1.6 9.7 0.00 0.00 0.00 46 1018.8
20260503171003 15 202 1.6 4.8 0.00 0.00 0.00 47 1018.9
20260503170503 15 205 1.6 9.7 0.00 0.00 0.00 49 1019.1
20260503151003 10 41 3.2 9.7 0.00 0.00 0.00 65 1020.2
20260503150503 10 188 1.6 9.7 0.00 0.00 0.00 64 1020.2
20260503131003 7 170 4.8 11.3 0.00 0.00 0.00 73 1019.7
20260503130504 7 165 3.2 11.3 0.00 0.00 0.00 74 1019.7
20260503110504 3 158 0.0 1.6 0.00 0.00 0.00 91 1019.0
20260503072504 4 0 0.0 0.0 0.00 0.00 0.00 86 1016.8
20260503072004 4 0 0.0 0.0 0.00 0.00 0.00 85 1016.7
20260503071503 4 0 0.0 0.0 0.00 0.00 0.00 85 1016.7
20260503071004 4 0 0.0 0.0 0.00 0.00 0.00 85 1016.6
20260503070504 4 0 0.0 0.0 0.00 0.00 0.00 85 1016.5
20260503054504 5 158 0.0 1.6 0.00 0.00 0.00 83 1016.6
20260503054004 5 158 0.0 1.6 0.00 0.00 0.00 83 1016.5
20260503053504 5 158 0.0 1.6 0.00 0.00 0.00 83 1016.5
20260503052504 5 0 0.0 0.0 0.00 0.00 0.00 83 1016.5
20260503051004 5 0 0.0 0.0 0.00 0.00 0.00 82 1016.6
20260503050504 5 0 0.0 0.0 0.00 0.00 0.00 82 1016.5
20260503050004 5 0 0.0 0.0 0.00 0.00 0.00 81 1016.5
20260503045504 5 0 0.0 0.0 0.00 0.00 0.00 81 1016.5
20260503045004 5 159 0.0 1.6 0.00 0.00 0.00 81 1016.4
20260503044504 5 159 0.0 1.6 0.00 0.00 0.00 81 1016.5
20260503044004 5 0 0.0 0.0 0.00 0.00 0.00 80 1016.4
20260503043504 5 0 0.0 0.0 0.00 0.00 0.00 80 1016.3
20260503043004 5 0 0.0 0.0 0.00 0.00 0.00 80 1016.3
20260503042504 5 0 0.0 0.0 0.00 0.00 0.00 80 1016.3
20260503041504 5 0 0.0 0.0 0.00 0.00 0.00 79 1016.1
20260503041004 6 0 0.0 0.0 0.00 0.00 0.00 79 1016.0
20260503040504 6 0 0.0 0.0 0.00 0.00 0.00 80 1016.0
20260503040005 6 0 0.0 0.0 0.00 0.00 0.00 79 1016.0
20260503035004 6 158 0.0 4.8 0.00 0.00 0.00 78 1016.0
20260503034504 6 158 0.0 4.8 0.00 0.00 0.00 78 1015.9
20260503034004 6 158 0.0 4.8 0.00 0.00 0.00 79 1015.9
20260503033504 6 158 0.0 1.6 0.00 0.00 0.00 78 1015.9
20260503033004 6 159 0.0 4.8 0.00 0.00 0.00 77 1015.8
20260503032004 6 158 0.0 1.6 0.00 0.00 0.00 76 1015.7
20260503031504 6 158 0.0 1.6 0.00 0.00 0.00 76 1015.6
20260503031004 6 158 0.0 1.6 0.00 0.00 0.00 76 1015.6
20260503030005 6 158 0.0 1.6 0.00 0.00 0.00 74 1015.5
20260503025004 7 158 0.0 1.6 0.00 0.00 0.00 74 1015.4
20260503024504 7 158 0.0 1.6 0.00 0.00 0.00 73 1015.4
20260503024004 7 159 0.0 4.8 0.00 0.00 0.00 73 1015.3
20260503023504 7 159 0.0 4.8 0.00 0.00 0.00 73 1015.3
20260503023005 7 159 0.0 4.8 0.00 0.00 0.00 72 1015.3
20260503022505 7 158 0.0 1.6 0.00 0.00 0.00 71 1015.2
20260503022004 7 159 0.0 9.7 0.00 0.00 0.00 72 1015.2
20260503021504 7 159 1.6 9.7 0.00 0.00 0.00 70 1015.1
20260503021004 7 159 0.0 1.6 0.00 0.00 0.00 70 1015.1
20260503020004 8 164 1.6 9.7 0.00 0.00 0.00 68 1015.0
20260503015504 8 164 0.0 4.8 0.00 0.00 0.00 68 1015.1
20260503015004 8 166 1.6 11.3 0.00 0.00 0.00 66 1015.0
20260503014004 9 178 0.0 4.8 0.00 0.00 0.00 66 1014.9
20260503013504 9 178 0.0 4.8 0.00 0.00 0.00 64 1014.8
20260503013004 10 178 0.0 4.8 0.00 0.00 0.00 64 1014.8
20260503012504 10 178 0.0 4.8 0.00 0.00 0.00 61 1014.7
20260503012004 10 178 0.0 1.6 0.00 0.00 0.00 61 1014.6
20260503011504 10 177 1.6 1.6 0.00 0.00 0.00 57 1014.5
20260503011004 10 176 1.6 6.4 0.00 0.00 0.00 56 1014.5
20260503010004 10 166 1.6 9.7 0.00 0.00 0.00 55 1014.3
20260503005503 11 166 1.6 9.7 0.00 0.00 0.00 56 1014.3
20260503005003 11 166 1.6 9.7 0.00 0.00 0.00 54 1014.1
20260503004503 11 167 1.6 9.7 0.00 0.00 0.00 54 1014.1
20260503003004 11 159 4.8 24.1 0.00 0.00 0.00 53 1013.9
20260503002504 11 145 3.2 12.9 0.00 0.00 0.00 52 1013.8
20260503001003 11 157 3.2 12.9 0.00 0.00 0.00 52 1013.4
20260503000503 11 166 3.2 11.3 0.00 0.00 0.00 51 1013.3
20260502235503 12 164 3.2 9.7 0.00 0.00 0.00 52 1013.3
20260502235003 12 170 3.2 9.7 0.00 0.00 0.00 51 1013.1
20260502234504 12 172 3.2 9.7 0.00 0.00 0.00 50 1013.0
20260502234003 12 164 3.2 9.7 0.00 0.00 0.00 51 1013.0
20260502233503 12 163 3.2 11.3 0.00 0.00 0.00 50 1012.9
20260502233004 12 162 4.8 11.3 0.00 0.00 0.00 50 1012.9
20260502232504 12 164 4.8 12.9 0.00 0.00 0.00 50 1012.8
20260502231004 12 152 4.8 12.9 0.00 0.00 0.00 50 1012.7
20260502230503 12 163 4.8 12.9 0.00 0.00 0.00 49 1012.6
20260502225503 12 175 4.8 12.9 0.00 0.00 0.00 49 1012.6
20260502225005 12 168 4.8 12.9 0.00 0.00 0.00 48 1012.5
20260502224504 12 162 4.8 12.9 0.00 0.00 0.00 49 1012.4
20260502224004 12 167 4.8 12.9 0.00 0.00 0.00 48 1012.4
20260502223004 13 171 8.0 20.9 0.00 0.00 0.00 47 1012.5
20260502222004 13 159 6.4 17.7 0.00 0.00 0.00 46 1012.4
20260502221504 13 154 6.4 17.7 0.00 0.00 0.00 49 1012.3
20260502221004 13 160 6.4 17.7 0.00 0.00 0.00 46 1012.3
20260502220504 13 159 6.4 17.7 0.00 0.00 0.00 47 1012.3
20260502220004 13 156 6.4 17.7 0.00 0.00 0.00 48 1012.3
20260502215503 13 158 6.4 20.9 0.00 0.00 0.00 46 1012.1
20260502215004 14 158 8.0 20.9 0.00 0.00 0.00 47 1012.1
20260502214502 13 158 8.0 20.9 0.00 0.00 0.00 45 1011.9
20260502214002 13 160 8.0 20.9 0.00 0.00 0.00 45 1011.8